STARLINK-34448

Last updated on Thu Jul 03 2025 00:02:06 GMT+0000 (Coordinated Universal Time)

1 64291U 25123A 25183.58335648 .00050819 00000+0 11578-2 0 9992 2 64291 69.9998 120.1712 0003395 275.5687 239.8951 15.42670516 4961
UTC large
Height (km)
Speed (km/s)
/
Latitude / Longitude
Inclination (degrees)
Orbital Period (minutes)
Azimuth
Elevation
Range (km)
Doppler Factor

Next 0 passes for location: London (51.5072 / 0.1276)

Sorry there are no passes over London.